Date String (YYYY-MM-DD hh:mm:ss) UTC,Instrument flags,Ambient pressure (hPa),Sample flow (lpm),Bypass flow (lpm),Sample temperature (°C),Ambient temperature (°C),ASC tube jacket temperature (°C),LED temperature (°C),Box temperature (°C),Sample RH (%),Span deviation,Mass concentration (μg/m³),Mass concentration (μg/m³),Mass concentration (μg/m³)
DateTimeUTC,F1_M11,P_M11,Q1_M11,Q2_M11,T1_M11,T2_M11,T3_M11,T4_M11,T5_M11,U1_M11,ZSPAN_M11,X2_M11,X0_M11,X1_M11
2022-07-09 07:00:00,,0832.8,5.00,0.00,29.6,28.2,00.0,38.4,31.4,26.8,0000.0,0003.63,0009.38,0003.10
2022-07-09 07:01:00,,0832.8,4.99,0.00,29.6,28.3,00.0,38.4,31.5,26.7,0000.0,0003.65,0009.37,0003.11
2022-07-09 07:02:00,,0832.8,5.00,0.00,29.6,28.4,00.0,38.4,31.5,26.6,0000.0,0003.62,0009.13,0003.10
2022-07-09 07:03:00,,0832.9,5.01,0.00,29.6,28.4,00.0,38.4,31.5,26.5,0000.0,0003.63,0008.97,0003.10
2022-07-09 07:04:00,,0832.9,5.00,0.00,29.7,28.5,00.0,38.4,31.6,26.4,0000.0,0003.65,0008.99,0003.11
2022-07-09 07:05:00,,0832.9,5.00,0.00,29.7,28.6,00.0,38.4,31.6,26.4,0000.0,0003.63,0008.64,0003.11
2022-07-09 07:06:00,,0832.9,5.00,0.00,29.7,28.6,00.0,38.4,31.6,26.3,0000.0,0003.61,0008.67,0003.12
2022-07-09 07:07:00,,0832.8,5.00,0.00,29.7,28.7,00.0,38.4,31.6,26.3,0000.0,0003.59,0008.60,0003.13
2022-07-09 07:08:00,,0832.9,5.00,0.00,29.8,28.7,00.0,38.5,31.7,26.3,0000.0,0003.62,0009.12,0003.15
2022-07-09 07:09:00,,0832.7,4.99,0.00,29.8,28.3,00.0,38.4,31.6,26.2,0000.0,0003.65,0009.12,0003.16
2022-07-09 07:10:00,,0832.7,4.99,0.00,29.7,27.6,00.0,38.4,31.5,26.3,0000.0,0003.69,0009.10,0003.18
2022-07-09 07:11:00,,0832.8,5.00,0.00,29.7,27.4,00.0,38.4,31.4,26.4,0000.0,0003.68,0009.09,0003.19
2022-07-09 07:12:00,,0832.8,5.00,0.00,29.6,27.4,00.0,38.4,31.3,26.6,0000.0,0003.66,0009.41,0003.19
2022-07-09 07:13:00,,0832.7,5.01,0.00,29.6,27.5,00.0,38.3,31.3,26.7,0000.0,0003.67,0009.49,0003.19
2022-07-09 07:14:00,,0832.8,5.00,0.00,29.5,27.6,00.0,38.3,31.3,26.7,0000.0,0003.67,0009.24,0003.20
2022-07-09 07:15:00,,0832.7,5.00,0.00,29.5,27.8,00.0,38.3,31.3,26.7,0000.0,0003.66,0008.94,0003.20
2022-07-09 07:16:00,,0832.7,4.99,0.00,29.5,27.9,00.0,38.3,31.4,26.6,0000.0,0003.69,0009.53,0003.21
2022-07-09 07:17:00,,0832.7,5.01,0.00,29.5,28.0,00.0,38.3,31.4,26.5,0000.0,0003.72,0010.35,0003.22
2022-07-09 07:18:00,,0832.7,5.00,0.00,29.6,28.1,00.0,38.4,31.4,26.4,0000.0,0003.73,0010.65,0003.21
2022-07-09 07:19:00,,0832.7,5.00,0.00,29.6,28.2,00.0,38.4,31.4,26.4,0000.0,0003.72,0010.31,0003.20
2022-07-09 07:20:00,,0832.7,5.01,0.00,29.6,28.3,00.0,38.4,31.5,26.3,0000.0,0003.70,0010.15,0003.19
2022-07-09 07:21:00,,0832.7,5.00,0.00,29.6,28.4,00.0,38.4,31.5,26.3,0000.0,0003.67,0009.99,0003.18
2022-07-09 07:22:00,,0832.7,5.00,0.00,29.7,28.5,00.0,38.4,31.5,26.2,0000.0,0003.67,0009.46,0003.17
2022-07-09 07:23:00,,0832.6,4.99,0.00,29.7,28.5,00.0,38.4,31.6,26.2,0000.0,0003.68,0009.00,0003.17
2022-07-09 07:24:00,,0832.6,5.01,0.00,29.7,28.6,00.0,38.4,31.6,26.2,0000.0,0003.72,0009.11,0003.17
2022-07-09 07:25:00,,0832.6,4.99,0.00,29.7,28.6,00.0,38.5,31.6,26.2,0000.0,0003.73,0009.42,0003.17
2022-07-09 07:26:00,,0832.6,5.00,0.00,29.8,28.7,00.0,38.5,31.6,26.0,0000.0,0003.74,0009.82,0003.17
2022-07-09 07:27:00,,0832.6,5.00,0.00,29.8,28.7,00.0,38.5,31.7,26.0,0000.0,0003.73,0009.27,0003.17
2022-07-09 07:28:00,,0832.5,5.01,0.00,29.8,28.7,00.0,38.5,31.7,26.0,0000.0,0003.75,0008.54,0003.19
2022-07-09 07:29:00,,0832.5,5.01,0.00,29.8,28.0,00.0,38.4,31.6,25.9,0000.0,0003.79,0008.18,0003.20
2022-07-09 07:30:00,,0832.5,5.00,0.00,29.8,27.5,00.0,38.4,31.5,25.9,0000.0,0003.80,0008.19,0003.20
2022-07-09 07:31:00,,0832.4,5.00,0.00,29.7,27.4,00.0,38.4,31.4,26.0,0000.0,0003.80,0008.46,0003.21
2022-07-09 07:32:00,,0832.4,5.00,0.00,29.6,27.4,00.0,38.4,31.4,26.1,0000.0,0003.81,0008.52,0003.21
2022-07-09 07:33:00,,0832.3,5.00,0.00,29.6,27.5,00.0,38.4,31.3,26.2,0000.0,0003.82,0008.48,0003.21
2022-07-09 07:34:00,,0832.3,5.00,0.00,29.6,27.7,00.0,38.4,31.3,26.3,0000.0,0003.84,0008.56,0003.22
2022-07-09 07:35:00,,0832.3,5.00,0.00,29.6,27.8,00.0,38.4,31.3,26.3,0000.0,0003.81,0008.56,0003.23
2022-07-09 07:36:00,,0832.3,5.00,0.00,29.6,27.9,00.0,38.4,31.4,26.2,0000.0,0003.86,0008.56,0003.24
2022-07-09 07:37:00,,0832.4,4.99,0.00,29.6,28.0,00.0,38.4,31.4,26.2,0000.0,0003.87,0008.16,0003.24
2022-07-09 07:38:00,,0832.3,5.00,0.00,29.6,28.1,00.0,38.4,31.4,26.2,0000.0,0003.88,0008.18,0003.25
2022-07-09 07:39:00,,0832.3,4.99,0.00,29.6,28.2,00.0,38.4,31.4,26.1,0000.0,0003.87,0008.17,0003.25
2022-07-09 07:40:00,,0832.3,5.00,0.00,29.6,28.3,00.0,38.4,31.5,26.2,0000.0,0003.88,0008.19,0003.24
2022-07-09 07:41:00,,0832.4,5.00,0.00,29.6,28.4,00.0,38.4,31.5,26.4,0000.0,0003.89,0008.23,0003.25
2022-07-09 07:42:00,,0832.3,5.00,0.00,29.7,28.5,00.0,38.4,31.5,26.1,0000.0,0003.95,0008.25,0003.25
2022-07-09 07:43:00,,0832.3,5.01,0.00,29.7,28.5,00.0,38.4,31.6,26.0,0000.0,0003.97,0008.64,0003.26
2022-07-09 07:44:00,,0832.3,5.01,0.00,29.7,28.6,00.0,38.4,31.6,26.0,0000.0,0003.99,0008.77,0003.26
2022-07-09 07:45:00,,0832.3,5.00,0.00,29.7,28.6,00.0,38.5,31.6,26.0,0000.0,0003.96,0008.69,0003.25
2022-07-09 07:46:00,,0832.3,4.99,0.00,29.8,28.7,00.0,38.5,31.7,25.9,0000.0,0003.95,0008.48,0003.25
2022-07-09 07:47:00,,0832.3,5.00,0.00,29.8,28.7,00.0,38.5,31.7,25.9,0000.0,0003.96,0008.52,0003.25
2022-07-09 07:48:00,,0832.3,5.02,0.00,29.8,28.8,00.0,38.5,31.7,25.8,0000.0,0003.94,0008.56,0003.24
2022-07-09 07:49:00,,0832.3,5.00,0.00,29.8,28.8,00.0,38.5,31.7,25.8,0000.0,0003.94,0008.65,0003.24
2022-07-09 07:50:00,,0832.2,5.00,0.00,29.8,28.4,00.0,38.5,31.7,25.8,0000.0,0003.95,0008.74,0003.24
2022-07-09 07:51:00,,0832.2,5.00,0.00,29.8,27.6,00.0,38.4,31.6,25.8,0000.0,0003.93,0008.79,0003.23
2022-07-09 07:52:00,,0832.2,5.01,0.00,29.7,27.4,00.0,38.4,31.5,25.8,0000.0,0003.92,0008.81,0003.23
2022-07-09 07:53:00,,0832.1,5.00,0.00,29.7,27.4,00.0,38.4,31.4,25.9,0000.0,0003.85,0008.36,0003.22
2022-07-09 07:54:00,,0832.1,5.00,0.00,29.6,27.5,00.0,38.4,31.4,25.9,0000.0,0003.81,0008.01,0003.21
2022-07-09 07:55:00,,0832.1,5.00,0.00,29.6,27.6,00.0,38.4,31.3,25.9,0000.0,0003.77,0007.77,0003.22
2022-07-09 07:56:00,,0832.1,5.00,0.00,29.6,27.8,00.0,38.4,31.3,25.9,0000.0,0003.79,0008.36,0003.21
2022-07-09 07:57:00,,0832.1,5.00,0.00,29.6,27.9,00.0,38.4,31.4,25.8,0000.0,0003.77,0008.80,0003.21
2022-07-09 07:58:00,,0832.0,5.00,0.00,29.6,28.0,00.0,38.4,31.4,25.7,0000.0,0003.78,0008.91,0003.20
2022-07-09 07:59:00,,0832.0,5.00,0.00,29.6,28.1,00.0,38.4,31.4,25.6,0000.0,0003.76,0008.73,0003.21
